Location: Asheville, NC
(35.6000°N, 82.5500°W)
Time: 08:55:48
(UTC-05:00)

UWE-3 - Visible Passes

Search period start: 11 December 2018 00:00
Search period end: 21 December 2018 00:00
Orbit: 586 x 683 km, 97.6° (Epoch: 11 December)

Date Brightness Start Highest point End Pass type
(mag) Time Alt. Az. Time Alt. Az. Time Alt. Az.
11 Dec ? 06:10:55 10° NE 06:13:58 17° E 06:17:02 10° SE visible
11 Dec ? 18:39:22 10° S 18:43:37 72° WSW 18:48:03 10° NNW visible
12 Dec ? 06:31:50 10° NE 06:35:56 30° E 06:39:58 10° SSE visible
12 Dec ? 19:01:28 10° SSW 19:05:28 38° W 19:09:37 10° NNW visible
13 Dec ? 06:53:14 10° NNE 06:57:49 52° E 07:02:19 10° S visible
13 Dec ? 17:47:20 10° SE 17:51:00 27° ENE 17:54:46 10° NNE visible
13 Dec ? 19:24:03 10° SW 19:27:23 22° W 19:30:48 10° NW visible
14 Dec ? 18:08:29 10° SSE 18:12:39 49° ENE 18:16:58 10° N visible
14 Dec ? 19:47:39 10° WSW 19:49:22 12° W 19:51:08 10° WNW visible
15 Dec ? 06:02:20 10° ENE 06:04:42 14° E 06:07:03 10° ESE visible
15 Dec ? 18:30:03 10° SSE 18:34:22 89° ESE 18:38:53 10° NNW visible
16 Dec ? 06:22:54 10° NE 06:26:41 24° E 06:30:23 10° SSE visible
16 Dec ? 18:51:59 10° S 18:56:12 49° W 19:00:34 10° NNW visible
17 Dec ? 06:44:10 10° NNE 06:48:35 41° E 06:52:56 10° S visible
17 Dec ? 19:14:21 10° SSW 19:18:05 27° W 19:21:56 10° NW visible
18 Dec ? 07:05:45 10° NNE 07:10:26 75° ESE 07:15:00 10° S visible
18 Dec ? 17:59:23 10° SE 18:03:27 39° ENE 18:07:40 10° N visible
18 Dec ? 19:37:23 10° SW 19:40:02 16° W 19:42:45 10° NW visible
19 Dec ? 05:54:20 10° ENE 05:55:24 11° E 05:56:28 10° ESE visible
19 Dec ? 18:20:47 10° SSE 18:25:09 72° ENE 18:29:41 10° N visible
20 Dec ? 06:14:05 10° NE 06:17:24 19° E 06:20:40 10° SE visible
20 Dec ? 18:42:34 10° S 18:46:56 63° W 18:51:28 10° NNW visible
